Regional Weather Roundup
Issued by NWS

Home | Current Version | Previous Version | Graphics & Text | Print | Product List | Glossary On
Versions: 1 2 3 4 5 6 7 8 9 10 11 12 13 14 15 16 17 18 19 20 21 22 23 24 25 26 27 28 29 30 31 32 33 34 35 36 37 38 39 40 41 42 43 44 45 46 47 48 49 50
000
ASUS43 KBIS 152210
RWRND

NORTH DAKOTA REGIONAL WEATHER ROUNDUP
NATIONAL WEATHER SERVICE BISMARCK ND
500 PM CDT TUE AUG 15 2017

NOTE: "FAIR" INDICATES FEW OR NO CLOUDS BELOW 12,000 FEET WITH NO
SIGNIFICANT WEATHER AND/OR OBSTRUCTIONS TO VISIBILITY.


NDZ001>003-009>011-017-152300-
NORTHWEST NORTH DAKOTA

CITY           SKY/WX    TMP DP  RH WIND       PRES   REMARKS
WILLISTON      CLOUDY    75  61  61 S7        29.84S
MINOT          CLOUDY    67  63  87 E9        29.86S
MINOT AFB      CLOUDY    66  63  88 SE7       29.85S
$$

NDZ018>021-031>035-040>046-152300-
SOUTHWEST NORTH DAKOTA

CITY           SKY/WX    TMP DP  RH WIND       PRES   REMARKS
BISMARCK       RAIN      66  65  96 N10       29.83F FOG
DICKINSON      HVY RAIN  63  62  97 N8        29.85S FOG
GARRISON         N/A     64  64 100 SE9       29.85S
HETTINGER ARPT LGT RAIN  68  60  75 NW7       29.86S
$$

NDZ004>008-012>016-024-026-027-054-152300-
NORTHEAST NORTH DAKOTA

CITY           SKY/WX    TMP DP  RH WIND       PRES   REMARKS
GRAND FORKS    CLOUDY    74  62  66 S8        29.90R
GRND FRKS AFB  CLOUDY    71  60  67 S7        29.90S
DEVILS LAKE    LGT RAIN  67  61  81 SE13      29.90S
$$

NDZ022-023-025-028>030-036>039-047>053-152300-
SOUTHEAST NORTH DAKOTA

CITY           SKY/WX    TMP DP  RH WIND       PRES   REMARKS
FARGO          CLOUDY    73  58  59 SE13G22   29.90F
JAMESTOWN      LGT RAIN  67  64  90 SE8       29.86F
$$





USA.gov is the U.S. government's official web portal to all federal, state and local government web resources and services.